User: anonymous   Login
Location: NJAA Observatory
(40.6819°N, 74.8979°W)
Time: 07:26:25
(UTC-05:00)
Language:

Cosmos 2263 Rocket - Orbit

View from above orbital plane
View from above orbital plane
View from above satellite
View from above satellite

Ground track
Ground track

The orbit data is extracted from the following two-line orbital elements,

1 22803U 93059B   14351.22146666 -.00000249  00000-0 -10048-3 0  4446
2 22803 070.9906 013.1611 0018738 329.4963 030.5069 14.16692232 98976
Epoch (UTC): 17 December 2014 05:18:54
Eccentricity: 0.0018738
inclination: 70.9906°
perigee height: 823 km
apogee height: 850 km
right ascension of ascending node: 13.1611°
argument of perigee: 329.4963°
revolutions per day: 14.16692232
mean anomaly at epoch: 30.5069°
orbit number at epoch: 9897

The dashed part of the orbit path shows where the satellite is in the earth's shadow,  

DLR